owner,sensor,date,latitude,longitude,vertical_datum,sea_water_practical_salinity,qcFlag 
DISL,ioos:station:DISL:DISL:1,2019-02-01T00:00:00Z,30.2513,-88.0778,2.3,26.5,11111222 
DISL,ioos:station:DISL:DISL:1,2019-02-01T00:30:00Z,30.2513,-88.0778,2.332,26.04,1111122 
DISL,ioos:station:DISL:DISL:1,2019-02-01T01:00:00Z,30.2513,-88.0778,2.4,16.2,11111222 
DISL,ioos:station:DISL:DISL:1,2019-02-01T01:30:00Z,30.2513,-88.0778,2.36,14.93,1111122 
DISL,ioos:station:DISL:DISL:1,2019-02-01T02:00:00Z,30.2513,-88.0778,2.4,10.2,11111222 
DISL,ioos:station:DISL:DISL:1,2019-02-01T02:30:00Z,30.2513,-88.0778,2.35,6.09,1111122 
DISL,ioos:station:DISL:DISL:1,2019-02-01T03:00:00Z,30.2513,-88.0778,2.3,11.7,11111222 
DISL,ioos:station:DISL:DISL:1,2019-02-01T03:30:00Z,30.2513,-88.0778,2.31,5.28,1111122 
DISL,ioos:station:DISL:DISL:1,2019-02-01T04:00:00Z,30.2513,-88.0778,2.3,5.3,11111222 
DISL,ioos:station:DISL:DISL:1,2019-02-01T04:30:00Z,30.2513,-88.0778,2.268,5.13,1111122 
DISL,ioos:station:DISL:DISL:1,2019-02-01T05:00:00Z,30.2513,-88.0778,2.2,4.8,11111222 
DISL,ioos:station:DISL:DISL:1,2019-02-01T05:30:00Z,30.2513,-88.0778,2.226,4.73,1111122 
DISL,ioos:station:DISL:DISL:1,2019-02-01T06:00:00Z,30.2513,-88.0778,2.2,4.6,11111222 
DISL,ioos:station:DISL:DISL:1,2019-02-01T06:30:00Z,30.2513,-88.0778,2.173,4.58,1111122 
DISL,ioos:station:DISL:DISL:1,2019-02-01T07:00:00Z,30.2513,-88.0778,2.2,4.5,11111222 
DISL,ioos:station:DISL:DISL:1,2019-02-01T07:30:00Z,30.2513,-88.0778,2.12,4.37,1111122 
DISL,ioos:station:DISL:DISL:1,2019-02-01T08:00:00Z,30.2513,-88.0778,2.1,4.3,11111222 
DISL,ioos:station:DISL:DISL:1,2019-02-01T08:30:00Z,30.2513,-88.0778,2.069,4.22,1111122 
DISL,ioos:station:DISL:DISL:1,2019-02-01T09:00:00Z,30.2513,-88.0778,2.0,4.2,11111222 
DISL,ioos:station:DISL:DISL:1,2019-02-01T09:30:00Z,30.2513,-88.0778,2.019,4.27,1111122 
DISL,ioos:station:DISL:DISL:1,2019-02-01T10:00:00Z,30.2513,-88.0778,2.0,4.3,11111222 
DISL,ioos:station:DISL:DISL:1,2019-02-01T10:30:00Z,30.2513,-88.0778,1.975,4.52,1111122 
DISL,ioos:station:DISL:DISL:1,2019-02-01T11:00:00Z,30.2513,-88.0778,2.0,4.9,11111222 
DISL,ioos:station:DISL:DISL:1,2019-02-01T11:30:00Z,30.2513,-88.0778,1.948,4.47,1111122 
DISL,ioos:station:DISL:DISL:1,2019-02-01T12:00:00Z,30.2513,-88.0778,1.9,4.0,11111222 
DISL,ioos:station:DISL:DISL:1,2019-02-01T12:30:00Z,30.2513,-88.0778,1.928,3.9,1111122 
DISL,ioos:station:DISL:DISL:1,2019-02-01T13:00:00Z,30.2513,-88.0778,1.9,3.7,11111222 
DISL,ioos:station:DISL:DISL:1,2019-02-01T13:30:00Z,30.2513,-88.0778,1.943,3.66,1111122 
DISL,ioos:station:DISL:DISL:1,2019-02-01T14:00:00Z,30.2513,-88.0778,1.9,3.5,11111222 
DISL,ioos:station:DISL:DISL:1,2019-02-01T14:30:00Z,30.2513,-88.0778,1.954,3.43,1111122 
DISL,ioos:station:DISL:DISL:1,2019-02-01T15:00:00Z,30.2513,-88.0778,2.0,3.4,11111222 
DISL,ioos:station:DISL:DISL:1,2019-02-01T15:30:00Z,30.2513,-88.0778,1.981,3.39,1111122 
DISL,ioos:station:DISL:DISL:1,2019-02-01T16:00:00Z,30.2513,-88.0778,2.0,3.5,11111222 
DISL,ioos:station:DISL:DISL:1,2019-02-01T16:30:00Z,30.2513,-88.0778,2.019,4.27,1111122 
DISL,ioos:station:DISL:DISL:1,2019-02-01T17:00:00Z,30.2513,-88.0778,2.1,5.3,11111222 
DISL,ioos:station:DISL:DISL:1,2019-02-01T17:30:00Z,30.2513,-88.0778,2.073,5.48,1111122 
DISL,ioos:station:DISL:DISL:1,2019-02-01T18:00:00Z,30.2513,-88.0778,2.1,5.5,11111222 
DISL,ioos:station:DISL:DISL:1,2019-02-01T18:30:00Z,30.2513,-88.0778,2.125,5.65,1111122 
DISL,ioos:station:DISL:DISL:1,2019-02-01T19:00:00Z,30.2513,-88.0778,2.2,5.3,11111222 
DISL,ioos:station:DISL:DISL:1,2019-02-01T19:30:00Z,30.2513,-88.0778,2.202,5.19,1111122 
DISL,ioos:station:DISL:DISL:1,2019-02-01T20:00:00Z,30.2513,-88.0778,2.2,6.5,11111222 
DISL,ioos:station:DISL:DISL:1,2019-02-01T20:30:00Z,30.2513,-88.0778,2.248,15.8,1111122 
DISL,ioos:station:DISL:DISL:1,2019-02-01T21:00:00Z,30.2513,-88.0778,2.3,19.2,11111222 
DISL,ioos:station:DISL:DISL:1,2019-02-01T21:30:00Z,30.2513,-88.0778,2.3,23.02,1111122 
DISL,ioos:station:DISL:DISL:1,2019-02-01T22:00:00Z,30.2513,-88.0778,2.3,25.2,11111222 
DISL,ioos:station:DISL:DISL:1,2019-02-01T22:30:00Z,30.2513,-88.0778,2.369,26.66,1111122 
DISL,ioos:station:DISL:DISL:1,2019-02-01T23:00:00Z,30.2513,-88.0778,2.4,27.4,11111222 
DISL,ioos:station:DISL:DISL:1,2019-02-01T23:30:00Z,30.2513,-88.0778,2.394,27.88,1111122 
DISL,ioos:station:DISL:DISL:1,2019-02-02T00:00:00Z,30.2513,-88.0778,2.4,28.1,11111222 
DISL,ioos:station:DISL:DISL:1,2019-02-02T00:30:00Z,30.2513,-88.0778,2.417,27.55,1111122 
DISL,ioos:station:DISL:DISL:1,2019-02-02T01:00:00Z,30.2513,-88.0778,2.4,24.7,11111222 
DISL,ioos:station:DISL:DISL:1,2019-02-02T01:30:00Z,30.2513,-88.0778,2.448,14.89,1111122 
DISL,ioos:station:DISL:DISL:1,2019-02-02T02:00:00Z,30.2513,-88.0778,2.5,7.4,11111222 
DISL,ioos:station:DISL:DISL:1,2019-02-02T02:30:00Z,30.2513,-88.0778,2.451,7.25,1111122 
DISL,ioos:station:DISL:DISL:1,2019-02-02T03:00:00Z,30.2513,-88.0778,2.4,7.4,11111222 
DISL,ioos:station:DISL:DISL:1,2019-02-02T03:30:00Z,30.2513,-88.0778,2.42,6.39,1111122 
DISL,ioos:station:DISL:DISL:1,2019-02-02T04:00:00Z,30.2513,-88.0778,2.4,7.2,11111222 
DISL,ioos:station:DISL:DISL:1,2019-02-02T04:30:00Z,30.2513,-88.0778,2.38,8.06,1111122 
DISL,ioos:station:DISL:DISL:1,2019-02-02T05:00:00Z,30.2513,-88.0778,2.4,8.4,11111222 
DISL,ioos:station:DISL:DISL:1,2019-02-02T05:30:00Z,30.2513,-88.0778,2.336,4.94,1111122 
DISL,ioos:station:DISL:DISL:1,2019-02-02T06:00:00Z,30.2513,-88.0778,2.3,3.5,11111222 
DISL,ioos:station:DISL:DISL:1,2019-02-02T06:30:00Z,30.2513,-88.0778,2.27,2.94,1111122 
DISL,ioos:station:DISL:DISL:1,2019-02-02T07:00:00Z,30.2513,-88.0778,2.3,2.9,11111222 
DISL,ioos:station:DISL:DISL:1,2019-02-02T07:30:00Z,30.2513,-88.0778,2.206,2.85,1111122 
DISL,ioos:station:DISL:DISL:1,2019-02-02T08:00:00Z,30.2513,-88.0778,2.2,2.9,11111222 
DISL,ioos:station:DISL:DISL:1,2019-02-02T08:30:00Z,30.2513,-88.0778,2.14,3.05,1111122 
DISL,ioos:station:DISL:DISL:1,2019-02-02T09:00:00Z,30.2513,-88.0778,2.1,3.1,11111222 
DISL,ioos:station:DISL:DISL:1,2019-02-02T09:30:00Z,30.2513,-88.0778,2.076,3.1,1111122 
DISL,ioos:station:DISL:DISL:1,2019-02-02T10:00:00Z,30.2513,-88.0778,2.1,3.1,11111222 
DISL,ioos:station:DISL:DISL:1,2019-02-02T10:30:00Z,30.2513,-88.0778,2.027,3.02,1111122 
DISL,ioos:station:DISL:DISL:1,2019-02-02T11:00:00Z,30.2513,-88.0778,2.0,3.0,11111222 
DISL,ioos:station:DISL:DISL:1,2019-02-02T11:30:00Z,30.2513,-88.0778,1.993,2.87,1111122 
DISL,ioos:station:DISL:DISL:1,2019-02-02T12:00:00Z,30.2513,-88.0778,2.0,2.8,11111222 
DISL,ioos:station:DISL:DISL:1,2019-02-02T12:30:00Z,30.2513,-88.0778,1.959,2.77,1111122 
DISL,ioos:station:DISL:DISL:1,2019-02-02T13:00:00Z,30.2513,-88.0778,2.0,2.7,11111222 
DISL,ioos:station:DISL:DISL:1,2019-02-02T13:30:00Z,30.2513,-88.0778,1.956,2.73,1111122 
DISL,ioos:station:DISL:DISL:1,2019-02-02T14:00:00Z,30.2513,-88.0778,2.0,2.7,11111222 
DISL,ioos:station:DISL:DISL:1,2019-02-02T14:30:00Z,30.2513,-88.0778,1.958,2.71,1111122 
DISL,ioos:station:DISL:DISL:1,2019-02-02T15:00:00Z,30.2513,-88.0778,2.0,2.7,11111222 
DISL,ioos:station:DISL:DISL:1,2019-02-02T15:30:00Z,30.2513,-88.0778,1.976,2.62,1111122 
DISL,ioos:station:DISL:DISL:1,2019-02-02T16:00:00Z,30.2513,-88.0778,2.0,2.6,11111222 
DISL,ioos:station:DISL:DISL:1,2019-02-02T16:30:00Z,30.2513,-88.0778,2.0,2.39,1111122 
DISL,ioos:station:DISL:DISL:1,2019-02-02T17:00:00Z,30.2513,-88.0778,2.0,2.3,11111222 
DISL,ioos:station:DISL:DISL:1,2019-02-02T17:30:00Z,30.2513,-88.0778,2.016,2.19,1111122 
DISL,ioos:station:DISL:DISL:1,2019-02-02T18:00:00Z,30.2513,-88.0778,2.0,2.2,11111222 
DISL,ioos:station:DISL:DISL:1,2019-02-02T18:30:00Z,30.2513,-88.0778,2.053,2.23,1111122 
DISL,ioos:station:DISL:DISL:1,2019-02-02T19:00:00Z,30.2513,-88.0778,2.1,3.6,11111222 
DISL,ioos:station:DISL:DISL:1,2019-02-02T19:30:00Z,30.2513,-88.0778,2.118,3.8,1111122 
DISL,ioos:station:DISL:DISL:1,2019-02-02T20:00:00Z,30.2513,-88.0778,2.1,3.4,11111222 
DISL,ioos:station:DISL:DISL:1,2019-02-02T20:30:00Z,30.2513,-88.0778,2.162,3.2,1111122 
DISL,ioos:station:DISL:DISL:1,2019-02-02T21:00:00Z,30.2513,-88.0778,2.2,5.6,11111222 
DISL,ioos:station:DISL:DISL:1,2019-02-02T21:30:00Z,30.2513,-88.0778,2.227,7.77,1111122 
DISL,ioos:station:DISL:DISL:1,2019-02-02T22:00:00Z,30.2513,-88.0778,2.3,12.4,11111222 
DISL,ioos:station:DISL:DISL:1,2019-02-02T22:30:00Z,30.2513,-88.0778,2.288,16.13,1111122 
DISL,ioos:station:DISL:DISL:1,2019-02-02T23:00:00Z,30.2513,-88.0778,2.3,20.1,11111222 
DISL,ioos:station:DISL:DISL:1,2019-02-02T23:30:00Z,30.2513,-88.0778,2.35,23.3,1111122 
DISL,ioos:station:DISL:DISL:1,2019-02-03T00:00:00Z,30.2513,-88.0778,2.4,25.7,11111222 
DISL,ioos:station:DISL:DISL:1,2019-02-03T00:30:00Z,30.2513,-88.0778,2.387,26.9,1111122 
DISL,ioos:station:DISL:DISL:1,2019-02-03T01:00:00Z,30.2513,-88.0778,2.4,27.2,11111222 
DISL,ioos:station:DISL:DISL:1,2019-02-03T01:30:00Z,30.2513,-88.0778,2.417,27.54,1111122 
DISL,ioos:station:DISL:DISL:1,2019-02-03T02:00:00Z,30.2513,-88.0778,2.4,21.0,11111222 
DISL,ioos:station:DISL:DISL:1,2019-02-03T02:30:00Z,30.2513,-88.0778,2.438,8.89,1111122 
DISL,ioos:station:DISL:DISL:1,2019-02-03T03:00:00Z,30.2513,-88.0778,2.4,6.6,11111222 
DISL,ioos:station:DISL:DISL:1,2019-02-03T03:30:00Z,30.2513,-88.0778,2.435,8.03,1111122 
DISL,ioos:station:DISL:DISL:1,2019-02-03T04:00:00Z,30.2513,-88.0778,2.4,6.6,11111222 
DISL,ioos:station:DISL:DISL:1,2019-02-03T04:30:00Z,30.2513,-88.0778,2.409,6.43,1111122 
DISL,ioos:station:DISL:DISL:1,2019-02-03T05:00:00Z,30.2513,-88.0778,2.4,6.4,11111222 
DISL,ioos:station:DISL:DISL:1,2019-02-03T05:30:00Z,30.2513,-88.0778,2.371,6.57,1111122 
DISL,ioos:station:DISL:DISL:1,2019-02-03T06:00:00Z,30.2513,-88.0778,2.4,6.7,11111222 
DISL,ioos:station:DISL:DISL:1,2019-02-03T06:30:00Z,30.2513,-88.0778,2.311,6.89,1111122 
DISL,ioos:station:DISL:DISL:1,2019-02-03T07:00:00Z,30.2513,-88.0778,2.3,6.7,11111222 
DISL,ioos:station:DISL:DISL:1,2019-02-03T07:30:00Z,30.2513,-88.0778,2.229,6.07,1111122 
DISL,ioos:station:DISL:DISL:1,2019-02-03T08:00:00Z,30.2513,-88.0778,2.2,2.8,11111222 
DISL,ioos:station:DISL:DISL:1,2019-02-03T08:30:00Z,30.2513,-88.0778,2.167,2.38,1111122 
DISL,ioos:station:DISL:DISL:1,2019-02-03T09:00:00Z,30.2513,-88.0778,2.2,2.5,11111222 
DISL,ioos:station:DISL:DISL:1,2019-02-03T09:30:00Z,30.2513,-88.0778,2.133,2.54,1111122 
DISL,ioos:station:DISL:DISL:1,2019-02-03T10:00:00Z,30.2513,-88.0778,2.1,2.6,11111222 
DISL,ioos:station:DISL:DISL:1,2019-02-03T10:30:00Z,30.2513,-88.0778,2.07,2.62,1111122 
DISL,ioos:station:DISL:DISL:1,2019-02-03T11:00:00Z,30.2513,-88.0778,2.0,2.6,11111222 
DISL,ioos:station:DISL:DISL:1,2019-02-03T11:30:00Z,30.2513,-88.0778,2.023,2.28,1111122 
DISL,ioos:station:DISL:DISL:1,2019-02-03T12:00:00Z,30.2513,-88.0778,2.0,2.0,11111222 
DISL,ioos:station:DISL:DISL:1,2019-02-03T12:30:00Z,30.2513,-88.0778,1.99,1.71,1111122 
DISL,ioos:station:DISL:DISL:1,2019-02-03T13:00:00Z,30.2513,-88.0778,2.0,1.5,11111222 
DISL,ioos:station:DISL:DISL:1,2019-02-03T13:30:00Z,30.2513,-88.0778,1.959,1.34,1111122 
DISL,ioos:station:DISL:DISL:1,2019-02-03T14:00:00Z,30.2513,-88.0778,2.0,1.3,11111222 
DISL,ioos:station:DISL:DISL:1,2019-02-03T14:30:00Z,30.2513,-88.0778,1.962,1.12,1111122 
DISL,ioos:station:DISL:DISL:1,2019-02-03T15:00:00Z,30.2513,-88.0778,2.0,1.0,11111222 
DISL,ioos:station:DISL:DISL:1,2019-02-03T15:30:00Z,30.2513,-88.0778,1.968,1.05,1111122 
DISL,ioos:station:DISL:DISL:1,2019-02-03T16:00:00Z,30.2513,-88.0778,2.0,1.0,11111222 
DISL,ioos:station:DISL:DISL:1,2019-02-03T16:30:00Z,30.2513,-88.0778,1.992,0.79,1111122 
DISL,ioos:station:DISL:DISL:1,2019-02-03T17:00:00Z,30.2513,-88.0778,2.0,0.8,11111222 
DISL,ioos:station:DISL:DISL:1,2019-02-03T17:30:00Z,30.2513,-88.0778,2.028,0.8,1111122 
DISL,ioos:station:DISL:DISL:1,2019-02-03T18:00:00Z,30.2513,-88.0778,2.0,0.9,11111222 
DISL,ioos:station:DISL:DISL:1,2019-02-03T18:30:00Z,30.2513,-88.0778,2.048,0.95,1111122 
DISL,ioos:station:DISL:DISL:1,2019-02-03T19:00:00Z,30.2513,-88.0778,2.1,1.0,11111222 
DISL,ioos:station:DISL:DISL:1,2019-02-03T19:30:00Z,30.2513,-88.0778,2.083,0.98,1111122 
DISL,ioos:station:DISL:DISL:1,2019-02-03T20:00:00Z,30.2513,-88.0778,2.1,1.5,11111222 
DISL,ioos:station:DISL:DISL:1,2019-02-03T20:30:00Z,30.2513,-88.0778,2.142,2.65,1111122 
DISL,ioos:station:DISL:DISL:1,2019-02-03T21:00:00Z,30.2513,-88.0778,2.2,3.0,11111222 
DISL,ioos:station:DISL:DISL:1,2019-02-03T21:30:00Z,30.2513,-88.0778,2.187,2.9,1111122 
DISL,ioos:station:DISL:DISL:1,2019-02-03T22:00:00Z,30.2513,-88.0778,2.2,3.1,11111222 
DISL,ioos:station:DISL:DISL:1,2019-02-03T22:30:00Z,30.2513,-88.0778,2.2,5.9,11111222 
DISL,ioos:station:DISL:DISL:1,2019-02-03T23:00:00Z,30.2513,-88.0778,2.252,7.55,1111122 
DISL,ioos:station:DISL:DISL:1,2019-02-03T23:30:00Z,30.2513,-88.0778,2.278,14.16,1111122 
DISL,ioos:station:DISL:DISL:1,2019-02-04T00:00:00Z,30.2513,-88.0778,2.3,15.4,11111222 
DISL,ioos:station:DISL:DISL:1,2019-02-04T00:30:00Z,30.2513,-88.0778,2.327,18.85,1111122 
DISL,ioos:station:DISL:DISL:1,2019-02-04T01:00:00Z,30.2513,-88.0778,2.4,19.0,11111222 
DISL,ioos:station:DISL:DISL:1,2019-02-04T01:30:00Z,30.2513,-88.0778,2.368,21.04,1111122 
DISL,ioos:station:DISL:DISL:1,2019-02-04T02:00:00Z,30.2513,-88.0778,2.4,21.5,11111222 
DISL,ioos:station:DISL:DISL:1,2019-02-04T02:30:00Z,30.2513,-88.0778,2.413,11.18,1111122 
DISL,ioos:station:DISL:DISL:1,2019-02-04T03:00:00Z,30.2513,-88.0778,2.4,9.5,11111222 
DISL,ioos:station:DISL:DISL:1,2019-02-04T03:30:00Z,30.2513,-88.0778,2.433,8.39,1111122 
DISL,ioos:station:DISL:DISL:1,2019-02-04T04:00:00Z,30.2513,-88.0778,2.4,7.3,11111222 
DISL,ioos:station:DISL:DISL:1,2019-02-04T04:30:00Z,30.2513,-88.0778,2.419,6.77,1111122 
DISL,ioos:station:DISL:DISL:1,2019-02-04T05:00:00Z,30.2513,-88.0778,2.4,7.0,11111222 
DISL,ioos:station:DISL:DISL:1,2019-02-04T05:30:00Z,30.2513,-88.0778,2.39,7.35,1111122 
DISL,ioos:station:DISL:DISL:1,2019-02-04T06:00:00Z,30.2513,-88.0778,2.4,7.6,11111222 
DISL,ioos:station:DISL:DISL:1,2019-02-04T06:30:00Z,30.2513,-88.0778,2.345,9.05,1111122 
DISL,ioos:station:DISL:DISL:1,2019-02-04T07:00:00Z,30.2513,-88.0778,2.3,8.9,11111222 
DISL,ioos:station:DISL:DISL:1,2019-02-04T07:30:00Z,30.2513,-88.0778,2.3,3.53,1111122 
DISL,ioos:station:DISL:DISL:1,2019-02-04T08:00:00Z,30.2513,-88.0778,2.3,2.0,11111222 
DISL,ioos:station:DISL:DISL:1,2019-02-04T08:30:00Z,30.2513,-88.0778,2.222,1.72,1111122 
DISL,ioos:station:DISL:DISL:1,2019-02-04T09:00:00Z,30.2513,-88.0778,2.2,1.3,11111222 
DISL,ioos:station:DISL:DISL:1,2019-02-04T09:30:00Z,30.2513,-88.0778,2.16,1.35,1111122 
DISL,ioos:station:DISL:DISL:1,2019-02-04T10:00:00Z,30.2513,-88.0778,2.1,1.4,11111222 
DISL,ioos:station:DISL:DISL:1,2019-02-04T10:30:00Z,30.2513,-88.0778,2.107,1.7,1111122 
DISL,ioos:station:DISL:DISL:1,2019-02-04T11:00:00Z,30.2513,-88.0778,2.1,2.0,11111222 
DISL,ioos:station:DISL:DISL:1,2019-02-04T11:30:00Z,30.2513,-88.0778,2.059,2.05,1111122 
DISL,ioos:station:DISL:DISL:1,2019-02-04T12:00:00Z,30.2513,-88.0778,2.0,2.0,11111222 
DISL,ioos:station:DISL:DISL:1,2019-02-04T12:30:00Z,30.2513,-88.0778,2.03,1.98,1111122 
DISL,ioos:station:DISL:DISL:1,2019-02-04T13:00:00Z,30.2513,-88.0778,2.0,1.9,11111222 
DISL,ioos:station:DISL:DISL:1,2019-02-04T13:30:00Z,30.2513,-88.0778,2.005,1.71,1111122 
DISL,ioos:station:DISL:DISL:1,2019-02-04T14:00:00Z,30.2513,-88.0778,2.0,1.5,11111222 
DISL,ioos:station:DISL:DISL:1,2019-02-04T14:30:00Z,30.2513,-88.0778,2.005,1.39,1111122 
DISL,ioos:station:DISL:DISL:1,2019-02-04T15:00:00Z,30.2513,-88.0778,2.0,1.3,11111222 
DISL,ioos:station:DISL:DISL:1,2019-02-04T15:30:00Z,30.2513,-88.0778,1.997,1.07,1111122 
DISL,ioos:station:DISL:DISL:1,2019-02-04T16:00:00Z,30.2513,-88.0778,2.0,1.1,11111222 
DISL,ioos:station:DISL:DISL:1,2019-02-04T16:30:00Z,30.2513,-88.0778,2.014,1.08,1111122 
DISL,ioos:station:DISL:DISL:1,2019-02-04T17:00:00Z,30.2513,-88.0778,2.0,1.0,11111222 
DISL,ioos:station:DISL:DISL:1,2019-02-04T17:30:00Z,30.2513,-88.0778,2.038,0.98,1111122 
DISL,ioos:station:DISL:DISL:1,2019-02-04T18:00:00Z,30.2513,-88.0778,2.0,1.1,11111222 
DISL,ioos:station:DISL:DISL:1,2019-02-04T18:30:00Z,30.2513,-88.0778,2.052,1.01,1111122 
DISL,ioos:station:DISL:DISL:1,2019-02-04T19:00:00Z,30.2513,-88.0778,2.1,1.0,11111222 
DISL,ioos:station:DISL:DISL:1,2019-02-04T19:30:00Z,30.2513,-88.0778,2.088,1.84,1111122 
DISL,ioos:station:DISL:DISL:1,2019-02-04T20:00:00Z,30.2513,-88.0778,2.1,2.3,11111222 
DISL,ioos:station:DISL:DISL:1,2019-02-04T20:30:00Z,30.2513,-88.0778,2.126,2.16,1111122 
DISL,ioos:station:DISL:DISL:1,2019-02-04T21:00:00Z,30.2513,-88.0778,2.2,2.4,11111222 
DISL,ioos:station:DISL:DISL:1,2019-02-04T21:30:00Z,30.2513,-88.0778,2.165,2.45,1111122 
DISL,ioos:station:DISL:DISL:1,2019-02-04T22:00:00Z,30.2513,-88.0778,2.2,3.2,11111222 
DISL,ioos:station:DISL:DISL:1,2019-02-04T22:30:00Z,30.2513,-88.0778,2.202,5.45,1111122 
DISL,ioos:station:DISL:DISL:1,2019-02-04T23:00:00Z,30.2513,-88.0778,2.3,11.6,11111222 
DISL,ioos:station:DISL:DISL:1,2019-02-04T23:30:00Z,30.2513,-88.0778,2.274,15.3,1111122 
DISL,ioos:station:DISL:DISL:1,2019-02-05T00:00:00Z,30.2513,-88.0778,2.3,11.0,11111222 
DISL,ioos:station:DISL:DISL:1,2019-02-05T00:30:00Z,30.2513,-88.0778,2.305,16.29,1111122 
DISL,ioos:station:DISL:DISL:1,2019-02-05T01:00:00Z,30.2513,-88.0778,2.3,17.7,11111222 
DISL,ioos:station:DISL:DISL:1,2019-02-05T01:30:00Z,30.2513,-88.0778,2.347,18.36,1111122 
DISL,ioos:station:DISL:DISL:1,2019-02-05T02:00:00Z,30.2513,-88.0778,2.4,19.5,11111222 
DISL,ioos:station:DISL:DISL:1,2019-02-05T02:30:00Z,30.2513,-88.0778,2.373,19.14,1111122 
DISL,ioos:station:DISL:DISL:1,2019-02-05T03:00:00Z,30.2513,-88.0778,2.4,11.8,11111222 
DISL,ioos:station:DISL:DISL:1,2019-02-05T03:30:00Z,30.2513,-88.0778,2.405,13.73,1111122 
DISL,ioos:station:DISL:DISL:1,2019-02-05T04:00:00Z,30.2513,-88.0778,2.4,13.5,11111222 
DISL,ioos:station:DISL:DISL:1,2019-02-05T04:30:00Z,30.2513,-88.0778,2.39,12.02,1111122 
DISL,ioos:station:DISL:DISL:1,2019-02-05T05:00:00Z,30.2513,-88.0778,2.4,11.5,11111222 
DISL,ioos:station:DISL:DISL:1,2019-02-05T05:30:00Z,30.2513,-88.0778,2.366,12.24,1111122 
DISL,ioos:station:DISL:DISL:1,2019-02-05T06:00:00Z,30.2513,-88.0778,2.4,11.1,11111222 
DISL,ioos:station:DISL:DISL:1,2019-02-05T06:30:00Z,30.2513,-88.0778,2.323,11.9,1111122 
DISL,ioos:station:DISL:DISL:1,2019-02-05T07:00:00Z,30.2513,-88.0778,2.3,11.0,11111222 
DISL,ioos:station:DISL:DISL:1,2019-02-05T07:30:00Z,30.2513,-88.0778,2.286,10.29,1111122 
DISL,ioos:station:DISL:DISL:1,2019-02-05T08:00:00Z,30.2513,-88.0778,2.3,4.0,11111222 
DISL,ioos:station:DISL:DISL:1,2019-02-05T08:30:00Z,30.2513,-88.0778,2.227,2.03,1111122 
DISL,ioos:station:DISL:DISL:1,2019-02-05T09:00:00Z,30.2513,-88.0778,2.2,2.0,11111222 
DISL,ioos:station:DISL:DISL:1,2019-02-05T09:30:00Z,30.2513,-88.0778,2.17,2.06,1111122 
DISL,ioos:station:DISL:DISL:1,2019-02-05T10:00:00Z,30.2513,-88.0778,2.1,2.3,11111222 
DISL,ioos:station:DISL:DISL:1,2019-02-05T10:30:00Z,30.2513,-88.0778,2.108,2.18,1111122 
DISL,ioos:station:DISL:DISL:1,2019-02-05T11:00:00Z,30.2513,-88.0778,2.1,2.1,11111222 
DISL,ioos:station:DISL:DISL:1,2019-02-05T11:30:00Z,30.2513,-88.0778,2.066,1.98,1111122 
DISL,ioos:station:DISL:DISL:1,2019-02-05T12:00:00Z,30.2513,-88.0778,2.1,2.0,11111222 
DISL,ioos:station:DISL:DISL:1,2019-02-05T12:30:00Z,30.2513,-88.0778,2.022,1.85,1111122 
DISL,ioos:station:DISL:DISL:1,2019-02-05T13:00:00Z,30.2513,-88.0778,2.0,1.6,11111222 
DISL,ioos:station:DISL:DISL:1,2019-02-05T13:30:00Z,30.2513,-88.0778,2.01,1.51,1111122 
DISL,ioos:station:DISL:DISL:1,2019-02-05T14:00:00Z,30.2513,-88.0778,2.0,1.5,11111222 
DISL,ioos:station:DISL:DISL:1,2019-02-05T14:30:00Z,30.2513,-88.0778,2.0,1.4,11111222 
DISL,ioos:station:DISL:DISL:1,2019-02-05T15:00:00Z,30.2513,-88.0778,1.993,1.39,1111122 
DISL,ioos:station:DISL:DISL:1,2019-02-05T15:30:00Z,30.2513,-88.0778,2.0,1.4,11111222 
DISL,ioos:station:DISL:DISL:1,2019-02-05T16:00:00Z,30.2513,-88.0778,2.001,1.41,1111122 
DISL,ioos:station:DISL:DISL:1,2019-02-05T16:30:00Z,30.2513,-88.0778,2.0,1.4,11111222 
DISL,ioos:station:DISL:DISL:1,2019-02-05T17:00:00Z,30.2513,-88.0778,2.02,1.74,1111122 
DISL,ioos:station:DISL:DISL:1,2019-02-05T17:30:00Z,30.2513,-88.0778,2.0,1.9,11111222 
DISL,ioos:station:DISL:DISL:1,2019-02-05T18:00:00Z,30.2513,-88.0778,2.048,2.24,1111122 
DISL,ioos:station:DISL:DISL:1,2019-02-05T18:30:00Z,30.2513,-88.0778,2.1,2.0,11111222 
DISL,ioos:station:DISL:DISL:1,2019-02-05T19:00:00Z,30.2513,-88.0778,2.088,2.33,1111122 
DISL,ioos:station:DISL:DISL:1,2019-02-05T19:30:00Z,30.2513,-88.0778,2.1,2.7,11111222 
DISL,ioos:station:DISL:DISL:1,2019-02-05T20:00:00Z,30.2513,-88.0778,2.1,2.63,1111122 
DISL,ioos:station:DISL:DISL:1,2019-02-05T20:30:00Z,30.2513,-88.0778,2.1,2.6,11111222 
DISL,ioos:station:DISL:DISL:1,2019-02-05T21:00:00Z,30.2513,-88.0778,2.159,2.13,1111122 
DISL,ioos:station:DISL:DISL:1,2019-02-05T21:30:00Z,30.2513,-88.0778,2.2,2.0,11111222 
DISL,ioos:station:DISL:DISL:1,2019-02-05T22:00:00Z,30.2513,-88.0778,2.192,1.84,1111122 
DISL,ioos:station:DISL:DISL:1,2019-02-05T22:30:00Z,30.2513,-88.0778,2.2,3.7,11111222 
DISL,ioos:station:DISL:DISL:1,2019-02-05T23:00:00Z,30.2513,-88.0778,2.241,5.35,1111122 
DISL,ioos:station:DISL:DISL:1,2019-02-05T23:30:00Z,30.2513,-88.0778,2.263,5.25,1111122 
DISL,ioos:station:DISL:DISL:1,2019-02-06T00:00:00Z,30.2513,-88.0778,2.3,11.1,11111222 
DISL,ioos:station:DISL:DISL:1,2019-02-06T00:30:00Z,30.2513,-88.0778,2.282,18.29,1111122 
DISL,ioos:station:DISL:DISL:1,2019-02-06T01:00:00Z,30.2513,-88.0778,2.3,19.7,11111222 
DISL,ioos:station:DISL:DISL:1,2019-02-06T01:30:00Z,30.2513,-88.0778,2.328,21.03,1111122 
DISL,ioos:station:DISL:DISL:1,2019-02-06T02:00:00Z,30.2513,-88.0778,2.3,21.9,11111222 
DISL,ioos:station:DISL:DISL:1,2019-02-06T02:30:00Z,30.2513,-88.0778,2.333,19.48,1111122 
DISL,ioos:station:DISL:DISL:1,2019-02-06T03:00:00Z,30.2513,-88.0778,2.4,21.5,11111222 
DISL,ioos:station:DISL:DISL:1,2019-02-06T03:30:00Z,30.2513,-88.0778,2.363,17.99,1111122 
DISL,ioos:station:DISL:DISL:1,2019-02-06T04:00:00Z,30.2513,-88.0778,2.4,11.9,11111222 
DISL,ioos:station:DISL:DISL:1,2019-02-06T04:30:00Z,30.2513,-88.0778,2.386,9.56,1111122 
DISL,ioos:station:DISL:DISL:1,2019-02-06T05:00:00Z,30.2513,-88.0778,2.4,10.4,11111222 
DISL,ioos:station:DISL:DISL:1,2019-02-06T05:30:00Z,30.2513,-88.0778,2.354,10.46,1111122 
DISL,ioos:station:DISL:DISL:1,2019-02-06T06:00:00Z,30.2513,-88.0778,2.3,11.6,11111222 
DISL,ioos:station:DISL:DISL:1,2019-02-06T06:30:00Z,30.2513,-88.0778,2.324,12.61,1111122 
DISL,ioos:station:DISL:DISL:1,2019-02-06T07:00:00Z,30.2513,-88.0778,2.3,14.1,11111222 
DISL,ioos:station:DISL:DISL:1,2019-02-06T07:30:00Z,30.2513,-88.0778,2.279,14.2,1111122 
DISL,ioos:station:DISL:DISL:1,2019-02-06T08:00:00Z,30.2513,-88.0778,2.3,11.1,11111222 
DISL,ioos:station:DISL:DISL:1,2019-02-06T08:30:00Z,30.2513,-88.0778,2.231,7.33,1111122 
DISL,ioos:station:DISL:DISL:1,2019-02-06T09:00:00Z,30.2513,-88.0778,2.2,3.2,11111222 
DISL,ioos:station:DISL:DISL:1,2019-02-06T09:30:00Z,30.2513,-88.0778,2.182,3.32,1111122 
DISL,ioos:station:DISL:DISL:1,2019-02-06T10:00:00Z,30.2513,-88.0778,2.2,3.1,11111222 
DISL,ioos:station:DISL:DISL:1,2019-02-06T10:30:00Z,30.2513,-88.0778,2.134,2.84,1111122 
DISL,ioos:station:DISL:DISL:1,2019-02-06T11:00:00Z,30.2513,-88.0778,2.1,2.7,11111222 
DISL,ioos:station:DISL:DISL:1,2019-02-06T11:30:00Z,30.2513,-88.0778,2.1,2.6,11111222 
DISL,ioos:station:DISL:DISL:1,2019-02-06T12:00:00Z,30.2513,-88.0778,2.07,2.5,1111122 
DISL,ioos:station:DISL:DISL:1,2019-02-06T12:30:00Z,30.2513,-88.0778,2.0,2.3,11111222 
DISL,ioos:station:DISL:DISL:1,2019-02-06T13:00:00Z,30.2513,-88.0778,2.032,2.07,1111122 
DISL,ioos:station:DISL:DISL:1,2019-02-06T13:30:00Z,30.2513,-88.0778,2.0,1.9,11111222 
DISL,ioos:station:DISL:DISL:1,2019-02-06T14:00:00Z,30.2513,-88.0778,2.016,1.64,1111122 
DISL,ioos:station:DISL:DISL:1,2019-02-06T14:30:00Z,30.2513,-88.0778,2.0,1.6,11111222 
DISL,ioos:station:DISL:DISL:1,2019-02-06T15:00:00Z,30.2513,-88.0778,1.998,1.46,1111122 
DISL,ioos:station:DISL:DISL:1,2019-02-06T15:30:00Z,30.2513,-88.0778,2.0,1.3,11111222 
DISL,ioos:station:DISL:DISL:1,2019-02-06T16:00:00Z,30.2513,-88.0778,2.012,1.74,1111122 
DISL,ioos:station:DISL:DISL:1,2019-02-06T16:30:00Z,30.2513,-88.0778,2.0,1.4,11111222 